Regional Weather Roundup
Issued by NWS

Home | Current Version | Previous Version | Text Only | Print | Product List | Glossary On
Versions: 1 2 3 4 5 6 7 8 9 10 11 12 13 14 15 16 17 18 19 20 21 22 23 24 25 26 27 28 29 30 31 32 33 34 35 36 37 38 39 40 41 42 43 44 45 46 47 48 49 50
000
ASUS46 KSEW 281810
RWRWA

WASHINGTON REGIONAL WEATHER ROUNDUP
NATIONAL WEATHER SERVICE SEATTLE WA
1000 AM PST SUN DEC 28 2014

NOTE:"FAIR" INDICATES FEW OR NO CLOUDS BELOW 12,000 FEET WITH NO
SIGNIFICANT WEATHER AND/OR OBSTRUCTIONS TO VISIBILITY.

WAZ505-507>509-281900-
SEATTLE, TACOMA, EVERETT, AND VICINITY

CITY           SKY/WX    TMP DP  RH WIND       PRES   REMARKS
EVERETT        PTSUNNY   40  38  93 CALM      30.20R
6HR MIN TEMP:  38; 6HR MAX TEMP:  40; 6HR PCP:  0.06;

BOEING FIELD   CLOUDY    43  37  81 SE8       30.22R
6HR MIN TEMP:  41; 6HR MAX TEMP:  44; 6HR PCP:  0.05;

RENTON         CLOUDY    41  31  67 E6        30.22R
6HR MIN TEMP:  40; 6HR MAX TEMP:  42; 6HR PCP:  0.06;

SEATAC AIRPORT CLOUDY    41  38  89 CALM      30.21R
6HR MIN TEMP:  39; 6HR MAX TEMP:  43; 6HR PCP:  0.08;

JBLM-MCCHORD   CLOUDY    40  40  99 SW2       30.22R
6HR MIN TEMP:  35; 6HR MAX TEMP:  40;

PUYALLUP       NOT AVBL
BREMERTON      CLOUDY    39  39 100 SW3       30.23S
6HR MIN TEMP:  36; 6HR MAX TEMP:  39;

JBLM-FT LEWIS  CLOUDY    40  40  99 SE2       30.22R
6HR MIN TEMP:  34; 6HR MAX TEMP:  40; 6HR PCP: TRACE;

TACOMA NARROWS CLOUDY    41  38  89 CALM      30.22R
6HR MIN TEMP:  40; 6HR MAX TEMP:  43; 6HR PCP: TRACE;

$$

WAZ001-503-506-510-514-515-281900-
NORTH INTERIOR

CITY           SKY/WX    TMP DP  RH WIND       PRES   REMARKS
BELLINGHAM     CLOUDY    37  37 100 CALM      30.20S FOG
6HR MIN TEMP:  34; 6HR MAX TEMP:  38;

FRIDAY HARBOR  CLOUDY    43  37  79 VRB6      30.22R
6HR MIN TEMP:  42; 6HR MAX TEMP:  43;

PORT ANGELES   CLOUDY    40  36  86 MISG      30.21R
6HR MIN TEMP:  31; 6HR MAX TEMP:  41;

NAS WHIDBEY    PTSUNNY   46  35  65 N14       30.21S
6HR MIN TEMP:  41; 6HR MAX TEMP:  47;

ARLINGTON      CLOUDY    39  36  87 SE5       30.22S
6HR MIN TEMP:  37; 6HR MAX TEMP:  41;

BURLINGTON     CLOUDY    41  39  93 CALM      30.21S
$$

WAZ020-022-039-040-504-511-512-281900-
SOUTHWEST INTERIOR

CITY           SKY/WX    TMP DP  RH WIND       PRES   REMARKS
SHELTON        CLOUDY    40  38  93 CALM      30.20S
6HR MIN TEMP:  36; 6HR MAX TEMP:  40;

OLYMPIA        CLOUDY    41  38  89 CALM      30.23R
6HR MIN TEMP:  35; 6HR MAX TEMP:  44;

CHEHALIS       NOT AVBL
KELSO          CLOUDY    43  37  81 SE6       30.30R
6HR MIN TEMP:  39; 6HR MAX TEMP:  43; 6HR PCP:  0.01;

VANCOUVER      CLOUDY    44  37  76 CALM      30.27S
6HR MIN TEMP:  40; 6HR MAX TEMP:  44; 6HR PCP:  0.03;

SCAPPOOSE, OR  LGT RAIN  43  38  82 CALM      30.26R
6HR MIN TEMP:  37; 6HR MAX TEMP:  43; 6HR PCP:  0.01;

PORTLAND, OR   CLOUDY    44  39  82 SW6       30.28S
6HR MIN TEMP:  41; 6HR MAX TEMP:  45; 6HR PCP:  0.05;

$$

WAZ021-516-517-281900-
WASHINGTON COAST

CITY           SKY/WX    TMP DP  RH WIND       PRES   REMARKS
FORKS          MOSUNNY   39  39 100 E5        30.20S
6HR MIN TEMP:  35; 6HR MAX TEMP:  45; 6HR PCP: TRACE;

HOQUIAM        CLOUDY    42  40  92 CALM      30.22R FOG
6HR MIN TEMP:  38; 6HR MAX TEMP:  48; 6HR PCP:  0.05;

ASTORIA, OR    CLOUDY    45  38  76 SW6       30.25R
6HR MIN TEMP:  43; 6HR MAX TEMP:  47; 6HR PCP:  0.04;

$$

WAZ019-023-024-040-518-519-281900-
CASCADE MOUNTAINS AND COLUMBIA GORGE

CITY           SKY/WX    TMP DP  RH WIND       PRES   REMARKS
TROUTDALE, OR  CLOUDY    44  40  85 CALM      30.27S
6HR MIN TEMP:  41; 6HR MAX TEMP:  45; 6HR PCP:  0.02;

THE DALLES, OR MOSUNNY   47  35  63 VRB6      30.21R
6HR MIN TEMP:  42; 6HR MAX TEMP:  47;

$$

WAZ026-027-041>044-520-521-281900-
EAST SLOPES

CITY           SKY/WX    TMP DP  RH WIND       PRES   REMARKS
OMAK           MOSUNNY   33  27  78 NW5       30.12R
6HR MIN TEMP:  28; 6HR MAX TEMP:  33;

WENATCHEE      MOSUNNY   33  29  85 CALM      30.13R
6HR MIN TEMP:  28; 6HR MAX TEMP:  35;

ELLENSBURG     SUNNY     39  29  67 SW3       30.10R
6HR MIN TEMP:  33; 6HR MAX TEMP:  40;

YAKIMA         PTSUNNY   35  29  78 W3        30.13R
6HR MIN TEMP:  26; 6HR MAX TEMP:  35;

$$

WAZ028-034-035-281900-
COLUMBIA BASIN

CITY           SKY/WX    TMP DP  RH WIND       PRES   REMARKS
EPHRATA        MOSUNNY   34  29  82 S3        30.11R
6HR MIN TEMP:  27; 6HR MAX TEMP:  35;

MOSES LAKE     CLOUDY    33  28  81 CALM      30.13R
6HR MIN TEMP:  27; 6HR MAX TEMP:  33;

PASCO          CLOUDY    40  33  76 N7        30.16R
6HR MIN TEMP:  34; 6HR MAX TEMP:  41;

HERMISTON, OR  CLOUDY    42  32  67 W13       30.15R
6HR MIN TEMP:  40; 6HR MAX TEMP:  42;

$$

WAZ036>038-281900-
NORTHEAST WASHINGTON

CITY           SKY/WX    TMP DP  RH WIND       PRES   REMARKS
SPOKANE GEIGER PTSUNNY   27  26  96 W7        30.04R
6HR MIN TEMP:  21; 6HR MAX TEMP:  29;

SPOKANE FELTS  CLOUDY    29  26  89 CALM      30.07R
6HR MIN TEMP:  28; 6HR MAX TEMP:  33; 6HR PCP: TRACE;

FAIRCHILD AFB  FOG       26  26  99 W5        30.04R VSB 1/2
6HR MIN TEMP:  20; 6HR MAX TEMP:  27; 6HR PCP: TRACE;

COEURDALENE,ID CLOUDY    30  27  86 W7        30.03R
6HR MIN TEMP:  28; 6HR MAX TEMP:  32;

DEER PARK      CLOUDY    25  25 100 CALM      30.05R
6HR MIN TEMP:  17; 6HR MAX TEMP:  30;

$$

WAZ029>033-281900-
SOUTHEAST WASHINGTON

CITY           SKY/WX    TMP DP  RH WIND       PRES   REMARKS
PULLMAN        CLOUDY    32  31  96 W12       30.05R WCI  23
6HR MIN TEMP:  31; 6HR MAX TEMP:  32; 6HR PCP: TRACE;

LEWISTON, ID   CLOUDY    39  33  79 CALM      30.08R
6HR MIN TEMP:  36; 6HR MAX TEMP:  39; 6HR PCP: TRACE;

WALLA WALLA    CLOUDY    40  34  79 SW12      30.13R
6HR MIN TEMP:  39; 6HR MAX TEMP:  41; 6HR PCP: TRACE;

PENDLETON, OR  LGT RAIN  38  30  73 W22G31    30.13R
6HR MIN TEMP:  37; 6HR MAX TEMP:  39; 6HR PCP: TRACE;

$$


USA.gov is the U.S. government's official web portal to all federal, state and local government web resources and services.